Weather reports worldwide

Advertisment
Cozzo Spadaro, Italy (16480): temperature & dewpoint: 20.03.2019 08:00:00 - 26.03.2019 08:00:00 (CET)Cozzo Spadaro, Italy (16480): wind speed: 20.03.2019 08:00:00 - 26.03.2019 08:00:00 (CET)Cozzo Spadaro, Italy (16480): wind direction: 20.03.2019 08:00:00 - 26.03.2019 08:00:00 (CET)Cozzo Spadaro, Italy (16480): reduced air pressure: 20.03.2019 08:00:00 - 26.03.2019 08:00:00 (CET)Cozzo Spadaro, Italy (16480): visibility: 20.03.2019 08:00:00 - 26.03.2019 08:00:00 (CET)Cozzo Spadaro, Italy (16480): sunshine duration: 20.03.2019 08:00:00 - 26.03.2019 08:00:00 (CET)
Date & Time tt [°C] td [°C] ff [km/h] ff [kn] dd ppp [hPa] vv [km] sd [min]
26.03.2019 08:00:00 14,6 11,7 16 9 W 1011,0 10 36
26.03.2019 07:00:00 12,8 10,4 16 9 W 1010,7 10 0
26.03.2019 06:00:00 - - - - - - - -
26.03.2019 05:00:00 - - - - - - - -
26.03.2019 04:00:00 - - - - - - - -
26.03.2019 03:00:00 - - - - - - - -
26.03.2019 02:00:00 - - - - - - - -
26.03.2019 01:00:00 - - - - - - - -
26.03.2019 00:00:00 - - - - - - - -
25.03.2019 23:00:00 - - - - - - - -
25.03.2019 22:00:00 - - - - - - - -
25.03.2019 21:00:00 - - - - - - - -
25.03.2019 20:00:00 - - - - - - - -
25.03.2019 19:00:00 14,0 11,5 16 9 W 1012,5 10 -
25.03.2019 18:00:00 14,8 12,1 22 12 W 1012,5 10 0
25.03.2019 17:00:00 15,4 11,4 18 10 W 1012,8 10 60
25.03.2019 16:00:00 16,6 12,0 22 12 W 1013,6 10 60
25.03.2019 15:00:00 17,0 12,1 21 11 W 1014,0 10 60
25.03.2019 14:00:00 17,0 11,9 22 12 W 1014,7 10 60
25.03.2019 13:00:00 17,2 12,5 22 12 W 1015,4 10 60
25.03.2019 12:00:00 17,0 12,3 22 12 W 1016,2 10 60
25.03.2019 11:00:00 17,0 12,1 21 11 W 1016,4 10 60
25.03.2019 10:00:00 17,4 12,5 15 8 W 1016,5 10 60
25.03.2019 09:00:00 16,2 10,7 13 7 W 1017,1 10 60
25.03.2019 08:00:00 14,4 9,6 4 2 NW 1017,2 10 42
25.03.2019 07:00:00 12,4 8,3 11 6 WNW 1017,2 10 0
25.03.2019 06:00:00 - - - - - - - -
25.03.2019 05:00:00 - - - - - - - -
25.03.2019 04:00:00 - - - - - - - -
25.03.2019 03:00:00 - - - - - - - -
25.03.2019 02:00:00 - - - - - - - -
25.03.2019 01:00:00 - - - - - - - -
25.03.2019 00:00:00 - - - - - - - -
24.03.2019 23:00:00 - - - - - - - -
24.03.2019 22:00:00 - - - - - - - -
24.03.2019 21:00:00 - - - - - - - -
24.03.2019 20:00:00 - - - - - - - -
24.03.2019 19:00:00 14,8 12,7 8 4 W 1019,2 10 0
24.03.2019 18:00:00 16,2 12,7 11 6 W 1019,3 10 12
24.03.2019 17:00:00 18,0 11,3 11 6 W 1019,6 20 60
24.03.2019 16:00:00 19,0 4,0 11 6 W 1019,9 20 60
24.03.2019 15:00:00 18,8 5,6 9 5 WSW 1020,2 20 60
24.03.2019 14:00:00 18,6 7,1 9 5 SE 1020,8 20 60
24.03.2019 13:00:00 19,4 5,5 8 4 S 1020,9 20 60
24.03.2019 12:00:00 19,2 3,8 5 3 E 1020,9 20 60
24.03.2019 11:00:00 19,0 3,2 5 3 ENE 1020,9 20 60
24.03.2019 10:00:00 18,4 3,1 8 4 NE 1020,3 20 60
24.03.2019 09:00:00 17,8 5,1 8 4 NNE 1020,1 20 60
24.03.2019 08:00:00 15,0 6,8 2 1 N 1020,1 20 48
24.03.2019 07:00:00 12,0 5,6 8 4 NNW 1019,7 10 0
24.03.2019 06:00:00 - - - - - - - -
24.03.2019 05:00:00 - - - - - - - -
24.03.2019 04:00:00 - - - - - - - -
24.03.2019 03:00:00 - - - - - - - -
24.03.2019 02:00:00 - - - - - - - -
24.03.2019 01:00:00 - - - - - - - -
24.03.2019 00:00:00 - - - - - - - -
23.03.2019 23:00:00 - - - - - - - -
23.03.2019 22:00:00 - - - - - - - -
23.03.2019 21:00:00 - - - - - - - -
23.03.2019 20:00:00 - - - - - - - -
23.03.2019 19:00:00 14,0 11,5 13 7 ENE 1018,3 10 0
23.03.2019 18:00:00 14,6 11,7 16 9 E 1018,2 10 0
23.03.2019 17:00:00 15,0 11,6 15 8 ENE 1018,1 10 42
23.03.2019 16:00:00 16,4 12,0 16 9 ENE 1018,5 10 60
23.03.2019 15:00:00 17,2 12,5 16 9 ENE 1018,8 4,0 60
23.03.2019 14:00:00 17,2 12,5 18 10 E 1019,0 4,0 60
23.03.2019 13:00:00 17,0 12,5 21 11 E 1019,0 10 60
23.03.2019 12:00:00 17,0 12,7 21 11 ENE 1019,2 10 60
23.03.2019 11:00:00 17,0 12,7 22 12 ENE 1019,2 4,0 60
23.03.2019 10:00:00 16,2 12,4 24 13 ENE 1019,1 4,0 60
23.03.2019 09:00:00 15,6 12,2 26 14 ENE 1019,1 10 24
23.03.2019 08:00:00 15,0 12,0 28 15 E 1019,0 4,0 18
23.03.2019 07:00:00 14,0 11,7 26 14 E 1018,6 4,0 0
23.03.2019 06:00:00 - - - - - - - -
23.03.2019 05:00:00 - - - - - - - -
23.03.2019 04:00:00 - - - - - - - -
23.03.2019 03:00:00 - - - - - - - -
23.03.2019 02:00:00 - - - - - - - -
23.03.2019 01:00:00 - - - - - - - -
23.03.2019 00:00:00 - - - - - - - -
22.03.2019 23:00:00 - - - - - - - -
22.03.2019 22:00:00 - - - - - - - -
22.03.2019 21:00:00 - - - - - - - -
22.03.2019 20:00:00 - - - - - - - -
22.03.2019 19:00:00 14,2 11,9 37 20 E 1019,2 4,0 -
22.03.2019 18:00:00 14,4 12,1 37 20 E 1019,2 4,0 0
22.03.2019 17:00:00 15,0 12,5 37 20 E 1019,2 4,0 0
22.03.2019 16:00:00 15,4 13,1 37 20 E 1019,1 4,0 0
22.03.2019 15:00:00 15,8 13,5 35 19 E 1019,2 4,0 0
22.03.2019 14:00:00 15,4 13,4 29 16 ENE 1020,1 4,0 0
22.03.2019 13:00:00 15,8 13,8 26 14 E 1020,1 4,0 0
22.03.2019 12:00:00 15,6 14,0 29 16 E 1020,6 4,0 0
22.03.2019 11:00:00 14,8 13,2 28 15 ENE 1020,2 4,0 0
22.03.2019 10:00:00 14,8 13,2 31 17 ENE 1020,6 4,0 0
22.03.2019 09:00:00 14,0 12,4 29 16 E 1020,8 4,0 0
22.03.2019 08:00:00 14,2 12,6 34 18 E 1020,2 4,0 0
22.03.2019 07:00:00 14,0 12,4 29 16 E 1020,2 4,0 0
22.03.2019 06:00:00 - - - - - - - -
22.03.2019 05:00:00 - - - - - - - -
22.03.2019 04:00:00 - - - - - - - -
22.03.2019 03:00:00 - - - - - - - -
22.03.2019 02:00:00 - - - - - - - -
22.03.2019 01:00:00 - - - - - - - -
22.03.2019 00:00:00 - - - - - - - -
21.03.2019 23:00:00 - - - - - - - -
21.03.2019 22:00:00 - - - - - - - -
21.03.2019 21:00:00 - - - - - - - -
21.03.2019 20:00:00 - - - - - - - -
21.03.2019 19:00:00 14,8 13,2 31 17 E 1017,0 4,0 -
21.03.2019 18:00:00 14,8 13,2 31 17 E 1016,2 4,0 0
21.03.2019 17:00:00 15,0 13,4 37 20 E 1016,1 4,0 0
21.03.2019 16:00:00 15,0 13,4 35 19 E 1017,0 4,0 0
21.03.2019 15:00:00 15,0 13,4 35 19 E 1016,9 50 0
21.03.2019 14:00:00 15,0 13,4 35 19 E 1017,2 4,0 0
21.03.2019 13:00:00 15,0 13,4 42 23 E 1017,2 4,0 0
21.03.2019 12:00:00 15,0 13,4 41 22 E 1017,2 4,0 0
21.03.2019 11:00:00 15,0 13,4 42 23 E 1017,2 4,0 0
21.03.2019 10:00:00 14,6 12,8 39 21 E 1017,1 4,0 0
21.03.2019 09:00:00 14,0 12,2 37 20 E 1017,2 4,0 0
21.03.2019 08:00:00 14,0 12,2 37 20 ENE 1016,2 4,0 0
21.03.2019 07:00:00 14,0 12,1 39 21 ENE 1016,1 4,0 -
21.03.2019 06:00:00 - - - - - - - -
21.03.2019 05:00:00 - - - - - - - -
21.03.2019 04:00:00 - - - - - - - -
21.03.2019 03:00:00 - - - - - - - -
21.03.2019 02:00:00 - - - - - - - -
21.03.2019 01:00:00 - - - - - - - -
21.03.2019 00:00:00 - - - - - - - -
20.03.2019 23:00:00 - - - - - - - -
20.03.2019 22:00:00 - - - - - - - -
20.03.2019 21:00:00 - - - - - - - -
20.03.2019 20:00:00 - - - - - - - -
20.03.2019 19:00:00 14,0 11,9 37 20 ENE 1016,1 10 -
20.03.2019 18:00:00 14,2 11,9 35 19 ENE 1016,5 10 0
20.03.2019 17:00:00 14,6 12,1 37 20 ENE 1016,6 10 0
20.03.2019 16:00:00 15,0 12,1 35 19 E 1016,7 10 0
20.03.2019 15:00:00 15,6 12,2 34 18 ENE 1016,6 10 0
20.03.2019 14:00:00 15,6 12,0 34 18 ENE 1015,4 10 0
20.03.2019 13:00:00 16,0 12,2 34 18 E 1017,0 10 0
20.03.2019 12:00:00 15,8 12,0 35 19 E 1017,1 10 0
20.03.2019 11:00:00 15,8 12,4 35 19 ENE 1016,1 10 12
20.03.2019 10:00:00 15,0 12,3 35 19 ENE 1016,0 10 18
20.03.2019 09:00:00 14,4 12,1 34 18 ENE 1015,4 10 0
20.03.2019 08:00:00 14,0 11,9 34 18 ENE 1015,2 10 0

tt = temperature
td = dewpoint
ff = wind speed
dd = wind direction
ppp = reduced air pressure
vv = visibility
sd = sunshine duration

Next stations